Washington, DC - DCA

Welcome to the Capitol

Ronald Reagan Washington National Airport serves the United States Capitol as American Airlines' domestic only hub connecting the east coast. AAG operates over 30% of the total passenger share out of this airport which features some of the most difficult approaches due to the surrounding airspace and close proximity to the capitol buildings.

DCA Based Pilots: 8   Miles to DCA: 60867
Flights from DCA: 117   Total Hours: 358.66
Routes using DCA: 1166   From DCA: 178.35
Total Miles: 120071   Hours To DCA: 180.31
Miles from DCA: 59204   DCA Charts: Click Here
VATSIM METAR: KDCA 272152Z 18011KT 10SM FEW019 SCT031 BKN038 OVC130 23/19 A2978 RMK AO2 SLP083 T02280189
 
         
View More: Click Here
   

 

Earn Your Wings

Interested in joining our DCA hub? Hover for more!

Your journey starts here. Your journey starts now. A whole new experience is at your fingertips.

Like what you see and ready to join the team?

A rewarding and memorable virtual airline experience awaits!